Weather History for Kayseri, Turkey

Change the Weather History Date:

Wednesday, October 3, 2012

  Actual Average Record
Temperature  
Mean Temperature 64 °F -  
Max Temperature 78 °F 65 °F 82 °F (1999)
Min Temperature 50 °F 38 °F 32 °F (2011)
Degree Days  
Heating Degree Days 1    
Growing Degree Days 14 (Base 50)    
Moisture  
Dew Point 49 °F    
Average Humidity 64    
Maximum Humidity 94    
Minimum Humidity 23    
Precipitation  
Precipitation 0.03 in - - ()
Sea Level Pressure  
Sea Level Pressure 30.08 in    
Wind  
Wind Speed 6 mph ()    
Max Wind Speed 15 mph    
Max Gust Speed 29 mph    
Visibility 6.6 miles    
Events Rain , Thunderstorm    
Averages and records for this station are not official NWS values.
T = Trace of Precipitation, MM = Missing Value Source: Averaged Metar Reports

Daily Weather History Graph

Daily Weather History Graph

Search for Another Location

Airport:

Trip Planner

Search our weather history database for the weather conditions in past years. The results will help you decide how hot, cold, wet, or windy it might be!

Date:

Astronomy

Oct. 03, 2012 Rise Set
Actual Time 6:35 AM EEST 6:17 PM EEST
Civil Twilight 6:09 AM EEST 6:43 PM EEST
Nautical Twilight 5:38 AM EEST 7:14 PM EEST
Astronomical Twilight 5:07 AM EEST 7:45 PM EEST
Moon 7:58 PM EEST (10/3) 9:37 AM EEST (10/3)
Length of Visible Light 12h 34m
Length of Day
11h 41m
Waning Gibbous, 90% of the Moon is Illuminated
Oct 3
Waning Gibbous
Oct 8
Last Quarter
Oct 15
New
Oct 22
First Quarter
Oct 29
Full

Hourly Weather History & Observations

Time (EEST) Temp. Dew Point Humidity Pressure Visibility Wind Dir Wind Speed Gust Speed Precip Events Conditions
12:20 AM 62.6 °F 48.2 °F 59% 30.15 in 6.2 mi ENE 11.5 mph - N/A   Scattered Clouds
12:50 AM 62.6 °F 46.4 °F 55% 30.15 in 6.2 mi NE 9.2 mph - N/A   Scattered Clouds
1:20 AM 60.8 °F 48.2 °F 63% 30.15 in 6.2 mi NNE 4.6 mph - N/A   Scattered Clouds
1:50 AM 57.2 °F 46.4 °F 67% 30.12 in 6.2 mi NNE 6.9 mph - N/A   Scattered Clouds
2:20 AM 55.4 °F 46.4 °F 72% 30.12 in 6.2 mi Variable 2.3 mph - N/A   Scattered Clouds
2:50 AM 53.6 °F 46.4 °F 77% 30.12 in 6.2 mi Calm Calm - N/A   Scattered Clouds
3:00 AM 54 °F 46 °F 68%  in 12 mi Calm Calm - -   Partly Cloudy
3:20 AM 51.8 °F 44.6 °F 76% 30.12 in 6.2 mi NNE 2.3 mph - N/A   Scattered Clouds
3:50 AM 53.6 °F 46.4 °F 77% 30.12 in 6.2 mi Variable 2.3 mph - N/A   Scattered Clouds
4:20 AM 51.8 °F 46.4 °F 82% 30.15 in 6.2 mi Variable 1.2 mph - N/A   Scattered Clouds
4:50 AM 53.6 °F 48.2 °F 82% 30.15 in 6.2 mi Variable 2.3 mph - N/A   Mostly Cloudy
5:20 AM 57.2 °F 48.2 °F 72% 30.09 in 6.2 mi NNE 11.5 mph - N/A   Mostly Cloudy
5:50 AM 62.6 °F 44.6 °F 52% 30.09 in 6.2 mi Variable 5.8 mph - N/A   Mostly Cloudy
6:20 AM 60.8 °F 46.4 °F 59% 30.15 in 6.2 mi South 9.2 mph - N/A Thunderstorm Thunderstorm
6:50 AM 59.0 °F 48.2 °F 67% 30.12 in 6.2 mi NE 9.2 mph - N/A Rain , Thunderstorm Light Thunderstorms and Rain
7:20 AM 59.0 °F 50.0 °F 72% 30.15 in 6.2 mi East 12.7 mph - N/A   Mostly Cloudy
7:50 AM 62.6 °F 46.4 °F 55% 30.09 in 6.2 mi NE 12.7 mph - N/A   Mostly Cloudy
8:20 AM 60.8 °F 50.0 °F 68% 30.09 in 6.2 mi North 5.8 mph - N/A   Mostly Cloudy
8:50 AM 62.6 °F 50.0 °F 63% 30.12 in 6.2 mi North 8.1 mph - N/A   Mostly Cloudy
9:00 AM 63 °F 49 °F 49%  in 12 mi North 8.1 mph - -   Partly Cloudy
9:20 AM 64.4 °F 50.0 °F 59% 30.12 in 6.2 mi North 4.6 mph - N/A   Mostly Cloudy
9:50 AM 66.2 °F 50.0 °F 56% 30.12 in 6.2 mi ENE 9.2 mph - N/A   Mostly Cloudy
10:20 AM 66.2 °F 51.8 °F 60% 30.12 in 6.2 mi East 5.8 mph - N/A   Mostly Cloudy
10:50 AM 66.2 °F 51.8 °F 60% 30.09 in 6.2 mi NNE 5.8 mph - N/A   Mostly Cloudy
11:20 AM 68.0 °F 51.8 °F 56% 30.09 in 6.2 mi NNE 9.2 mph - N/A   Mostly Cloudy
11:50 AM 73.4 °F 48.2 °F 41% 30.09 in 6.2 mi ENE 5.8 mph - N/A   Mostly Cloudy
12:20 PM 73.4 °F 48.2 °F 41% 30.06 in 6.2 mi ESE 8.1 mph - N/A   Mostly Cloudy
12:50 PM 75.2 °F 48.2 °F 38% 30.06 in 6.2 mi ESE 6.9 mph - N/A   Mostly Cloudy
1:20 PM 77.0 °F 46.4 °F 34% 30.06 in 6.2 mi SE 5.8 mph - N/A   Scattered Clouds
1:50 PM 77.0 °F 48.2 °F 36% 30.04 in 6.2 mi East 3.5 mph - N/A   Mostly Cloudy
2:20 PM 78.8 °F 44.6 °F 30% 30.01 in 6.2 mi East 4.6 mph - N/A   Scattered Clouds
2:50 PM 75.2 °F 46.4 °F 36% 30.01 in 6.2 mi SE 5.8 mph - N/A Thunderstorm Thunderstorm
3:00 PM 76 °F 45 °F 23%  in 12 mi SE 5.8 mph - - Thunderstorm Thunderstorm
3:20 PM 73.4 °F 42.8 °F 33% 30.01 in 6.2 mi WSW 9.2 mph - N/A   Scattered Clouds
3:50 PM 69.8 °F 50.0 °F 49% 30.01 in 6.2 mi WSW 15.0 mph 28.8 mph N/A Rain , Thunderstorm Light Thunderstorms and Rain
4:20 PM 66.2 °F 48.2 °F 52% 30.04 in 6.2 mi West 12.7 mph - N/A Rain , Thunderstorm Light Thunderstorms and Rain
4:50 PM 62.6 °F 53.6 °F 72% 30.06 in 6.2 mi SSE 5.8 mph - N/A Rain Light Rain Showers
5:20 PM 62.6 °F 53.6 °F 72% 30.04 in 6.2 mi SE 4.6 mph - N/A   Mostly Cloudy
5:50 PM 62.6 °F 55.4 °F 77% 30.04 in 6.2 mi NNE 5.8 mph - N/A   Mostly Cloudy
6:20 PM 60.8 °F 55.4 °F 82% 30.04 in 6.2 mi NE 9.2 mph - N/A   Mostly Cloudy
6:50 PM 60.8 °F 53.6 °F 77% 30.04 in 6.2 mi North 6.9 mph - N/A   Mostly Cloudy
7:20 PM 60.8 °F 53.6 °F 77% 30.04 in 6.2 mi North 9.2 mph - N/A   Mostly Cloudy
7:50 PM 60.8 °F 51.8 °F 72% 30.04 in 6.2 mi Variable 2.3 mph - N/A   Mostly Cloudy
8:20 PM 60.8 °F 53.6 °F 77% 30.06 in 6.2 mi Variable 2.3 mph - N/A   Mostly Cloudy
8:50 PM 59.0 °F 53.6 °F 82% 30.06 in 6.2 mi Calm Calm - N/A   Mostly Cloudy
9:00 PM 60 °F 54 °F 74%  in 12 mi Calm Calm - -   Partly Cloudy
9:20 PM 59.0 °F 53.6 °F 82% 30.06 in 6.2 mi Variable 1.2 mph - N/A   Mostly Cloudy
9:50 PM 59.0 °F 53.6 °F 82% 30.06 in 6.2 mi Variable 1.2 mph - N/A   Scattered Clouds
10:20 PM 57.2 °F 53.6 °F 88% 30.06 in 6.2 mi North 4.6 mph - N/A   Scattered Clouds
10:50 PM 55.4 °F 51.8 °F 88% 30.06 in 6.2 mi Variable 2.3 mph - N/A   Scattered Clouds
11:20 PM 53.6 °F 51.8 °F 94% 30.06 in 6.2 mi Calm Calm - N/A   Scattered Clouds
11:50 PM 55.4 °F 51.8 °F 88% 30.06 in 6.2 mi Variable 1.2 mph - N/A   Scattered Clouds